When you browse on this site, cookies collect data to enhance your experience and personalize the content and advertising you see.
Visit our Privacy Policy to learn more. By continuing to use the site, you agree to this use of cookies and data.
  • In Portugal
  • List of Countries
  • For 7 days
  • Water Temperature
  • Satellite Maps
  • Weather Map
  • Weather Widgets
  • user-avatar
    Login

    Hourly Weather Weglew

    Today, 20 June, Thursday

    Time Temperature Precipitation Wind Pressure Humidity
    00:00 +21°C° 0 mm 1 mps 749 mmHg 80%
    01:00 +21°C° 0 mm 1 mps 749 mmHg 81%
    02:00 +21°C° 0 mm 1 mps 749 mmHg 80%
    03:00 +21°C° 0 mm 1 mps 749 mmHg 80%
    04:00 +21°C° 0 mm 1 mps 749 mmHg 79%
    05:00 +21°C° 0 mm 2 mps 749 mmHg 77%
    06:00 +23°C° 0 mm 2 mps 749 mmHg 76%
    07:00 +25°C° 0 mm 2 mps 749 mmHg 74%
    08:00 +26°C° 0 mm 2 mps 749 mmHg 68%
    09:00 +28°C° 0 mm 2 mps 749 mmHg 62%
    10:00 +29°C° 0 mm 2 mps 749 mmHg 57%
    11:00 +30°C° 0 mm 3 mps 749 mmHg 53%
    12:00 +31°C° 0 mm 3 mps 749 mmHg 50%
    13:00 +31°C° 0 mm 3 mps 749 mmHg 47%
    14:00 +31°C° 0 mm 3 mps 749 mmHg 48%
    15:00 +31°C° 0 mm 3 mps 749 mmHg 50%
    16:00 +31°C° 0 mm 3 mps 749 mmHg 51%
    17:00 +30°C° 0 mm 2 mps 749 mmHg 55%
    18:00 +29°C° 0 mm 2 mps 749 mmHg 59%
    19:00 +28°C° 0 mm 2 mps 749 mmHg 63%
    20:00 +26°C° 0.6 mm 2 mps 749 mmHg 72%
    21:00 +23°C° 0.6 mm 2 mps 750 mmHg 81%
    22:00 +20°C° 0.6 mm 2 mps 750 mmHg 89%
    23:00 +20°C° 0.4 mm 3 mps 750 mmHg 90%

    Tomorrow, 21 June, Friday

    Time Temperature Precipitation Wind Pressure Humidity
    00:00 +19°C° 0.4 mm 3 mps 751 mmHg 90%
    01:00 +19°C° 0.4 mm 4 mps 751 mmHg 91%
    02:00 +19°C° 0 mm 3 mps 751 mmHg 91%
    03:00 +19°C° 0 mm 2 mps 751 mmHg 91%
    04:00 +19°C° 0 mm 2 mps 751 mmHg 91%
    05:00 +20°C° 0 mm 2 mps 752 mmHg 88%
    06:00 +21°C° 0 mm 2 mps 752 mmHg 85%
    07:00 +23°C° 0 mm 2 mps 753 mmHg 82%
    08:00 +23°C° 0.5 mm 2 mps 753 mmHg 82%
    09:00 +23°C° 0.5 mm 2 mps 753 mmHg 82%
    10:00 +22°C° 0.5 mm 3 mps 753 mmHg 83%
    11:00 +24°C° 0.1 mm 2 mps 753 mmHg 78%
    12:00 +24°C° 0.1 mm 2 mps 753 mmHg 73%
    13:00 +25°C° 0.1 mm 2 mps 753 mmHg 68%
    14:00 +25°C° 0.2 mm 2 mps 753 mmHg 67%
    15:00 +26°C° 0.2 mm 3 mps 753 mmHg 66%
    16:00 +26°C° 0.2 mm 3 mps 753 mmHg 66%
    17:00 +25°C° 0.3 mm 3 mps 753 mmHg 71%
    18:00 +24°C° 0.3 mm 3 mps 754 mmHg 77%
    19:00 +22°C° 0.3 mm 3 mps 754 mmHg 83%
    20:00 +21°C° 0 mm 3 mps 754 mmHg 86%
    21:00 +20°C° 0 mm 3 mps 755 mmHg 89%
    22:00 +18°C° 0 mm 3 mps 756 mmHg 92%
    23:00 +18°C° 0 mm 3 mps 756 mmHg 93%

    Day after tomorrow, 22 June, Saturday

    Time Temperature Precipitation Wind Pressure Humidity
    00:00 +17°C° 0 mm 3 mps 756 mmHg 94%
    01:00 +17°C° 0 mm 3 mps 756 mmHg 95%
    02:00 +16°C° 0 mm 3 mps 756 mmHg 95%
    03:00 +14°C° 0 mm 3 mps 757 mmHg 94%
    04:00 +14°C° 0 mm 3 mps 757 mmHg 94%
    05:00 +16°C° 0 mm 3 mps 757 mmHg 89%
    06:00 +17°C° 0 mm 3 mps 758 mmHg 85%
    07:00 +18°C° 0 mm 4 mps 758 mmHg 81%
    08:00 +19°C° 0 mm 4 mps 758 mmHg 74%
    09:00 +20°C° 0 mm 4 mps 758 mmHg 66%
    10:00 +21°C° 0 mm 4 mps 758 mmHg 59%
    11:00 +22°C° 0 mm 4 mps 758 mmHg 58%
    12:00 +23°C° 0 mm 4 mps 758 mmHg 57%
    13:00 +23°C° 0 mm 5 mps 758 mmHg 56%
    14:00 +23°C° 0 mm 5 mps 757 mmHg 57%
    15:00 +23°C° 0 mm 5 mps 757 mmHg 59%
    16:00 +23°C° 0 mm 5 mps 757 mmHg 60%
    17:00 +22°C° 0 mm 5 mps 757 mmHg 65%
    18:00 +21°C° 0 mm 5 mps 757 mmHg 70%
    19:00 +20°C° 0 mm 5 mps 757 mmHg 75%
    20:00 +19°C° 0 mm 5 mps 758 mmHg 74%
    21:00 +16°C° 0 mm 5 mps 758 mmHg 72%
    22:00 +15°C° 0 mm 5 mps 758 mmHg 71%
    23:00 +15°C° 0 mm 5 mps 758 mmHg 74%

    23 June, Sunday

    Time Temperature Precipitation Wind Pressure Humidity
    00:00 +14°C° 0 mm 5 mps 758 mmHg 77%
    01:00 +14°C° 0 mm 5 mps 758 mmHg 80%
    02:00 +13°C° 0 mm 5 mps 758 mmHg 78%
    03:00 +13°C° 0 mm 4 mps 758 mmHg 76%
    04:00 +13°C° 0 mm 4 mps 758 mmHg 74%
    05:00 +13°C° 0 mm 4 mps 758 mmHg 73%
    06:00 +13°C° 0 mm 4 mps 758 mmHg 72%
    07:00 +14°C° 0 mm 4 mps 759 mmHg 72%
    08:00 +15°C° 0 mm 4 mps 759 mmHg 70%
    09:00 +17°C° 0 mm 4 mps 759 mmHg 68%
    10:00 +19°C° 0 mm 4 mps 759 mmHg 66%
    11:00 +20°C° 0 mm 4 mps 759 mmHg 64%
    12:00 +21°C° 0 mm 4 mps 759 mmHg 61%
    13:00 +22°C° 0 mm 4 mps 759 mmHg 59%
    14:00 +22°C° 0 mm 4 mps 759 mmHg 58%
    15:00 +22°C° 0 mm 4 mps 759 mmHg 58%
    16:00 +22°C° 0 mm 5 mps 758 mmHg 58%
    17:00 +21°C° 0 mm 4 mps 759 mmHg 63%
    18:00 +20°C° 0 mm 4 mps 759 mmHg 67%
    19:00 +19°C° 0 mm 4 mps 759 mmHg 72%
    20:00 +17°C° 0 mm 4 mps 759 mmHg 78%
    21:00 +16°C° 0 mm 3 mps 760 mmHg 83%
    22:00 +14°C° 0 mm 3 mps 760 mmHg 89%
    23:00 +13°C° 0 mm 3 mps 760 mmHg 91%

    24 June, Monday

    Time Temperature Precipitation Wind Pressure Humidity
    00:00 +13°C° 0 mm 3 mps 760 mmHg 92%
    01:00 +12°C° 0 mm 3 mps 760 mmHg 94%
    02:00 +12°C° 0 mm 3 mps 760 mmHg 94%
    03:00 +12°C° 0 mm 3 mps 761 mmHg 95%
    04:00 +11°C° 0 mm 3 mps 761 mmHg 95%
    05:00 +13°C° 0 mm 3 mps 761 mmHg 88%
    06:00 +16°C° 0 mm 3 mps 761 mmHg 82%
    07:00 +17°C° 0 mm 3 mps 761 mmHg 75%
    08:00 +19°C° 0 mm 3 mps 761 mmHg 69%
    09:00 +20°C° 0 mm 3 mps 761 mmHg 63%
    10:00 +22°C° 0 mm 3 mps 761 mmHg 57%
    11:00 +24°C° 0 mm 3 mps 761 mmHg 54%
    12:00 +24°C° 0 mm 3 mps 761 mmHg 51%
    13:00 +25°C° 0 mm 3 mps 761 mmHg 47%
    14:00 +25°C° 0 mm 3 mps 761 mmHg 47%
    15:00 +25°C° 0 mm 3 mps 760 mmHg 47%
    16:00 +25°C° 0 mm 3 mps 760 mmHg 46%
    17:00 +24°C° 0 mm 3 mps 760 mmHg 53%
    18:00 +23°C° 0 mm 2 mps 761 mmHg 59%
    19:00 +21°C° 0 mm 2 mps 761 mmHg 66%
    20:00 +19°C° 0 mm 2 mps 761 mmHg 71%
    21:00 +18°C° 0 mm 2 mps 761 mmHg 76%
    22:00 +16°C° 0 mm 3 mps 762 mmHg 80%
    23:00 +16°C° 0 mm 2 mps 762 mmHg 83%

    25 June, Tuesday

    Time Temperature Precipitation Wind Pressure Humidity
    00:00 +15°C° 0 mm 2 mps 762 mmHg 86%
    01:00 +15°C° 0 mm 2 mps 762 mmHg 89%
    02:00 +14°C° 0 mm 2 mps 762 mmHg 90%
    03:00 +14°C° 0 mm 2 mps 762 mmHg 90%
    04:00 +14°C° 0 mm 2 mps 762 mmHg 90%
    05:00 +16°C° 0 mm 2 mps 762 mmHg 84%
    06:00 +17°C° 0 mm 2 mps 762 mmHg 77%
    07:00 +19°C° 0 mm 2 mps 762 mmHg 71%
    08:00 +21°C° 0 mm 2 mps 762 mmHg 66%
    09:00 +22°C° 0 mm 3 mps 762 mmHg 61%
    10:00 +25°C° 0 mm 3 mps 762 mmHg 56%
    11:00 +25°C° 0 mm 3 mps 762 mmHg 53%
    12:00 +26°C° 0 mm 3 mps 762 mmHg 50%
    13:00 +27°C° 0 mm 2 mps 761 mmHg 47%
    14:00 +27°C° 0 mm 3 mps 761 mmHg 47%
    15:00 +27°C° 0 mm 3 mps 761 mmHg 48%
    16:00 +27°C° 0 mm 3 mps 761 mmHg 49%
    17:00 +26°C° 0 mm 3 mps 761 mmHg 55%
    18:00 +24°C° 0 mm 3 mps 761 mmHg 61%
    19:00 +23°C° 0 mm 2 mps 761 mmHg 68%
    20:00 +21°C° 0 mm 2 mps 761 mmHg 71%
    21:00 +19°C° 0 mm 3 mps 761 mmHg 73%
    22:00 +18°C° 0 mm 3 mps 761 mmHg 76%
    23:00 +17°C° 0 mm 2 mps 761 mmHg 78%
    Show more